Location: Moscow
(55.7500°N, 37.5830°E)
Time: 17:59:18
(UTC+03:00)

A-11 Canister half - Pass Details

Date: 09 December 2021
Orbit: 1516 x 1684 km, 47.2° (Epoch: 19 January)

Event Time Altitude Azimuth Distance (km) Brightness Sun altitude
Rises 08:26:02 0° 251° (WSW) 4,774 11.3 -3.1°
Reaches altitude 10° 08:29:10 10° 246° (WSW) 3,813 10.8 -2.7°
Maximum altitude 08:38:28 52° 174° (S) 1,962 10.0 -1.7°
Drops below altitude 10° 08:48:04 10° 102° (ESE) 3,928 12.3 -0.7°
Sets 08:51:21 0° 98° (E) 4,928 12.7 -0.4°
